This demonstration page uses our WeatherBlox Daily Observations layout. Learn more.

39.01783, -85.05884

Hourly Observations for November 11, 2019

Temp ( °F °C ) Dew Point ( °F °C ) Humidity (%) Winds ( mph kmh ) Pressure ( in mb ) Visibility ( mi km ) Precip ( " mm )
12:52 am 00:52 Cloudy 43 6.1 37 2.8 80 80 Calm 30.01 1016 10 16.0934 0 0
1:52 am 01:52 Cloudy 46 7.8 39 3.9 77 77 S 5 7 30.01 1016 10 16.0934 0 0
2:52 am 02:52 Cloudy 49 9.4 39 3.9 69 69 Calm 30.01 1016 10 16.0934 0 0
3:52 am 03:52 Cloudy 48 8.9 40 4.4 74 74 Calm 30.01 1016 10 16.0934 0 0
4:52 am 04:52 Cloudy 47 8.3 41 5 80 80 S 5 7 30.01 1016 10 16.0934 0 0
5:52 am 05:52 Mostly Cloudy 47 8.3 38 3.3 71 71 SSE 3 6 30.01 1016 10 16.0934 0 0
6:52 am 06:52 Mostly Cloudy 44 6.7 37 2.8 76 76 S 5 7 30 1016 10 16.0934 0 0
7:52 am 07:52 Cloudy 44 6.7 38 3.3 79 79 S 6 9 30 1016 10 16.0934 0 0
8:52 am 08:52 Mostly Cloudy 50 10 39 3.9 66 66 SSW 8 13 30 1016 10 16.0934 0 0
9:52 am 09:52 Mostly Cloudy 53 11.7 40 4.4 61 61 S 14 22 29.97 1015 10 16.0934 0 0
10:52 am 10:52 Mostly Cloudy 57 13.9 40 4.4 53 53 SSW 12 19 29.96 1015 10 16.0934 0 0
11:52 am 11:52 Mostly Cloudy 59 15 41 5 51 51 SSW 10 17 29.93 1013 10 16.0934 0 0
12:52 pm 12:52 Cloudy 58 14.4 41 5 53 53 SSW 13 20 29.89 1012 10 16.0934 0 0
1:52 pm 13:52 Cloudy 57 13.9 41 5 55 55 W 13 20 29.9 1012 10 16.0934 0 0
2:52 pm 14:52 Cloudy 51 10.6 44 6.7 77 77 NW 17 28 29.92 1013 9 14.48406 0.01 0.254
2:55 pm 14:55 Cloudy 50 10 44 6.7 80 80 NW 16 26 29.93 1014 8 12.87472 0 0
3:14 pm 15:14 Cloudy with Light Rain 47 8.3 43 6.1 86 86 NW 15 24 29.96 1014 3 4.82802 0.001 0.001
3:18 pm 15:18 Cloudy with Light Rain 47 8.3 43 6.1 86 86 NW 15 24 29.96 1014 3 4.82802 0.001 0.001
3:35 pm 15:35 Cloudy with Light Rain 46 7.8 43 6.1 89 89 WNW 13 20 29.96 1014 2 3.21868 0.01 0.254
3:52 pm 15:52 Cloudy with Light Rain 41 5 38 3.3 89 89 NNW 21 33 29.95 1014 2 3.21868 0.01 0.254
4:08 pm 16:08 Cloudy with Light Rain 39 3.9 36 2.2 89 89 NNW 20 31 30 1016 7 11.26538 0.001 0.001
4:24 pm 16:24 Cloudy with Light Rain/Snow 37 2.8 34 1.1 89 89 NNW 17 28 30.02 1016 2 3.21868 0.001 0.001
4:29 pm 16:29 Cloudy with Light Rain/Snow 36 2.2 34 1.1 93 93 NNW 21 33 30.02 1017 1.75 2.816345 0.001 0.001
4:52 pm 16:52 Cloudy with Light Rain/Snow 36 2.2 32 0 86 86 NNW 15 24 30 1016 2 3.21868 0.001 0.001
5:52 pm 17:52 Cloudy with Light Snow 33 0.6 31 -0.6 92 92 NNW 17 28 30.04 1017 2 3.21868 0.05 1.27
6:01 pm 18:01 Windy with Snow Likely 33 0.6 30 -1.1 89 89 NNW 21 33 30.07 1018 1.75 2.816345 0.01 0.254
6:52 pm 18:52 Mostly Cloudy with Scattered Snow Showers 33 0.6 30 -1.1 89 89 NNW 13 20 30.04 1017 1.75 2.816345 0.06 1.524
7:32 pm 19:32 Cloudy with Light Snow 32 0 29 -1.7 88 88 NNW 15 24 30.11 1020 1.75 2.816345 0.02 0.508
7:45 pm 19:45 Cloudy with Light Snow 32 0 29 -1.7 88 88 NNW 15 24 30.12 1020 1.5 2.41401 0.02 0.508
7:52 pm 19:52 Cloudy with Light Snow 32 0 29 -1.7 88 88 NNW 14 22 30.09 1019 1.5 2.41401 0.03 0.762
8:01 pm 20:01 Cloudy with Light Snow 31 -0.6 29 -1.7 92 92 NNW 18 30 30.13 1020 0.75 1.207005 0.01 0.254
8:18 pm 20:18 Cloudy with Light Snow 31 -0.6 28 -2.2 89 89 NNW 14 22 30.13 1020 1 1.60934 0.02 0.508
8:52 pm 20:52 Cloudy with Light Snow 31 -0.6 27 -2.8 85 85 NNW 18 30 30.1 1019 1 1.60934 0.04 1.016
9:38 pm 21:38 Windy with Snow Likely 29 -1.7 26 -3.3 89 89 NNW 22 35 30.17 1022 1 1.60934 0.01 0.254
9:52 pm 21:52 Cloudy with Light Snow 29 -1.7 26 -3.3 89 89 NNW 17 28 30.14 1021 1 1.60934 0.02 0.508
10:00 pm 22:00 Mostly Cloudy with Scattered Snow Showers 29 -1.7 25 -3.9 85 85 NNW 18 30 30.18 1022 0.75 1.207005 0.01 0.254
10:30 pm 22:30 Mostly Cloudy with Scattered Snow Showers 29 -1.7 26 -3.3 89 89 NNW 14 22 30.18 1022 1 1.60934 0.03 0.762
10:52 pm 22:52 Cloudy with Light Snow 29 -1.7 26 -3.3 89 89 NNW 13 20 30.14 1021 1 1.60934 0.04 1.016
11:16 pm 23:16 Cloudy with Light Snow 29 -1.7 25 -3.9 85 85 NNW 17 28 30.2 1023 2 3.21868 0.001 0.001
11:28 pm 23:28 Cloudy with Light Snow 29 -1.7 25 -3.9 85 85 NW 15 24 30.2 1023 3 4.82802 0.001 0.001
11:43 pm 23:43 Cloudy with Light Snow 29 -1.7 25 -3.9 85 85 NW 17 28 30.21 1023 2.5 4.02335 0.01 0.254
11:52 pm 23:52 Cloudy with Light Snow 29 -1.7 25 -3.9 85 85 NW 16 26 30.16 1021 1.5 2.41401 0.01 0.254
11:59 pm 23:59 Cloudy with Light Snow 29 -1.7 25 -3.9 85 85 NW 17 28 30.21 1023 1.5 2.41401 0.001 0.001

Powered by AerisWeather